• Join FlightAware (Why Join?)
  • Login
  • US Flag 
11:39AM EST


 

Airport Tracker/Info


-or-


 

Live Flight TrackerFlight Track Log ✈ N175CS ✈ 04-May-2013 ✈ KOSU - KHAO

Flight Track Log - Related Links

Times and Time Zones

All times are in EDT time to prevent confusion due to time zone crossing. See the N175CS flight status page for this flight to view local times or setup timezone preferences in your user account.

Time Position Orientation Groundspeed Altitude Reporting Facility
EDT Latitude Longitude Course Direction KTS MPH feet Rate Location/Type
09:42AM 39.9256 -83.3283 238° Southwest 103 119 4,400  Level Indianapolis Center
09:43AM 39.9208 -83.3392 240° Southwest 102 117 4,500  Climbing Indianapolis Center
09:43AM 39.9125 -83.3619 245° Southwest 113 130 4,400  Descending Indianapolis Center
09:44AM 39.9075 -83.3747 243° Southwest 107 123 4,500  Climbing Indianapolis Center
09:44AM 39.8997 -83.3931 241° Southwest 102 117 4,400  Descending Indianapolis Center
09:45AM 39.8931 -83.4072 238° Southwest 105 121 4,500  Climbing Indianapolis Center
09:45AM 39.8800 -83.4369 240° Southwest 105 121 4,400  Descending Indianapolis Center
09:46AM 39.8781 -83.4397 228° Southwest 104 120 4,500  Climbing Indianapolis Center
09:46AM 39.8722 -83.4578 247° West 107 123 4,400  Descending Indianapolis Center
09:47AM 39.9655 -83.3089 238° Southwest  Level Estimated
09:47AM 39.8644 -83.4731 236° Southwest 105 121 4,500  Level Indianapolis Center
09:47AM 39.8575 -83.4886 240° Southwest 102 117 4,500 60 Level Indianapolis Center
09:48AM 39.8500 -83.5089 244° Southwest 101 116 4,600  Climbing Indianapolis Center
09:48AM 39.8447 -83.5197 238° Southwest 98 113 4,500 -120 Descending Indianapolis Center
09:49AM 39.8358 -83.5411 242° Southwest 101 116 4,500  Level Indianapolis Center
09:49AM 39.8381 -83.5514 286° West 127 146 4,500  Level Indianapolis Center
09:50AM 39.8208 -83.5739 225° Southwest 103 119 4,500 -120 Level Indianapolis Center
09:50AM 39.8122 -83.5917 238° Southwest 126 145 4,400 -120 Descending Indianapolis Center
09:51AM 39.8056 -83.6061 239° Southwest 104 120 4,400  Level Indianapolis Center
09:51AM 39.7972 -83.6225 237° Southwest 96 110 4,400  Level Indianapolis Center
09:52AM 39.7900 -83.6381 239° Southwest 104 120 4,400  Level Indianapolis Center
09:52AM 39.7822 -83.6558 240° Southwest 99 114 4,400  Level Indianapolis Center
09:53AM 39.7758 -83.6692 238° Southwest 102 117 4,400  Level Indianapolis Center
09:53AM 39.7672 -83.6892 241° Southwest 103 119 4,400 60 Level Indianapolis Center
09:54AM 39.7597 -83.7067 241° Southwest 101 116 4,500 60 Climbing Indianapolis Center
09:54AM 39.7542 -83.7231 246° West 99 114 4,500  Level Indianapolis Center
09:55AM 39.7467 -83.7392 239° Southwest 100 115 4,500 -120 Level Indianapolis Center
09:55AM 39.7414 -83.7539 245° Southwest 100 115 4,400 -120 Descending Indianapolis Center
09:56AM 39.7331 -83.7711 238° Southwest 100 115 4,400  Level Indianapolis Center
09:56AM 39.7286 -83.7847 247° West 101 116 4,400  Level Indianapolis Center
09:57AM 39.7186 -83.8039 236° Southwest 102 117 4,400  Level Indianapolis Center
09:58AM 39.7053 -83.8372 243° Southwest 103 119 4,400  Level Indianapolis Center
09:59AM 39.6881 -83.8800 242° Southwest 99 114 4,400  Level Indianapolis Center
10:00AM 39.6733 -83.9053 233° Southwest 97 112 4,400  Level Indianapolis Center